Alexandria, MN

5:25 PM CDT on April 28, 2017 (GMT -0500)
Chandler

Weather History for KAXN - May, 2014

Change the Weather History Date:

Tuesday, May 6, 2014

  Actual Average Record
Temperature  
Mean Temperature 54 °F -  
Max Temperature 63 °F 63 °F 89 °F (2016)
Min Temperature 46 °F 41 °F 25 °F (1989)
Degree Days  
Heating Degree Days 10    
Growing Degree Days 4 (Base 50)    
Moisture  
Dew Point 36 °F    
Average Humidity 49    
Maximum Humidity 73    
Minimum Humidity 35    
Precipitation  
Precipitation 0.00 in - - ()
Sea Level Pressure  
Sea Level Pressure 29.86 in    
Wind  
Wind Speed 14 mph (ESE)    
Max Wind Speed 24 mph    
Max Gust Speed 33 mph    
Visibility 10 miles    
Events      
Averages and records for this station are not official NWS values.
T = Trace of Precipitation, MM = Missing Value Source: NWS Daily Summary

Daily Weather History Graph

Daily Weather History Graph

Search for Another Location

Airport or City:

Trip Planner

Search our weather history database for the weather conditions in past years. The results will help you decide how hot, cold, wet, or windy it might be!

Date:

Astronomy

May. 06, 2014 Rise Set
Actual Time 6:01 AM CDT 8:35 PM CDT
Civil Twilight 5:27 AM CDT 9:09 PM CDT
Nautical Twilight 4:45 AM CDT 9:52 PM CDT
Astronomical Twilight 3:56 AM CDT 10:41 PM CDT
Moon 12:22 PM CDT (5/6) 1:52 AM CDT (5/6)
Length of Visible Light 15h 41m
Length of Day
14h 34m
Waxing Crescent, 46% of the Moon is Illuminated
May 6
Waxing Crescent
May 6
First Quarter
May 14
Full
May 21
Last Quarter
May 28
New

Hourly Weather History & Observations

Time (CDT) Temp. Windchill Dew Point Humidity Pressure Visibility Wind Dir Wind Speed Gust Speed Precip Events Conditions
12:53 AM 51.1 °F - 36.0 °F 56% 29.96 in 10.0 mi East 9.2 mph - N/A   Clear
1:53 AM 48.0 °F - 37.0 °F 66% 29.95 in 10.0 mi East 12.7 mph - N/A   Clear
6:53 AM 46.0 °F 41.4 °F 37.9 °F 73% 29.96 in 10.0 mi ESE 9.2 mph - N/A   Scattered Clouds
7:53 AM 46.9 °F - 37.9 °F 71% 29.99 in 10.0 mi SE 9.2 mph - N/A   Overcast
9:53 AM 51.1 °F - 36.0 °F 56% 29.92 in 10.0 mi SE 15.0 mph 23.0 mph N/A   Partly Cloudy
10:53 AM 53.1 °F - 33.1 °F 47% 29.93 in 10.0 mi SE 18.4 mph 23.0 mph N/A   Overcast
11:53 AM 55.9 °F - 32.0 °F 40% 29.85 in 10.0 mi SE 21.9 mph 33.4 mph N/A   Partly Cloudy
12:53 PM 57.9 °F - 33.1 °F 39% 29.85 in 10.0 mi ESE 24.2 mph 32.2 mph N/A   Clear
1:53 PM 60.1 °F - 33.1 °F 36% 29.85 in 10.0 mi ESE 21.9 mph 27.6 mph N/A   Mostly Cloudy
2:53 PM 63.0 °F - 35.1 °F 35% 29.82 in 10.0 mi ESE 16.1 mph 28.8 mph N/A   Partly Cloudy
3:53 PM 61.0 °F - 34.0 °F 36% 29.83 in 10.0 mi ESE 18.4 mph 26.5 mph N/A   Overcast
4:53 PM 61.0 °F - 35.1 °F 38% 29.81 in 10.0 mi ESE 18.4 mph 26.5 mph N/A   Mostly Cloudy
5:53 PM 61.0 °F - 35.1 °F 38% 29.82 in 10.0 mi ESE 17.3 mph 25.3 mph N/A   Scattered Clouds
6:53 PM 60.1 °F - 37.0 °F 42% 29.81 in 10.0 mi East 15.0 mph 21.9 mph N/A   Partly Cloudy
7:53 PM 57.9 °F - 37.9 °F 47% 29.82 in 10.0 mi East 11.5 mph - N/A   Overcast
8:53 PM 57.9 °F - 39.0 °F 49% 29.83 in 10.0 mi ESE 10.4 mph - N/A   Overcast
9:53 PM 55.9 °F - 41.0 °F 57% 29.81 in 10.0 mi East 16.1 mph 23.0 mph N/A   Overcast
10:53 PM 55.9 °F - 39.9 °F 55% 29.81 in 10.0 mi East 13.8 mph - N/A   Overcast
11:53 PM 55.9 °F - 39.0 °F 53% 29.81 in 10.0 mi East 15.0 mph - N/A   Overcast